Temp
10 10 11 10 10 11 10 10 10 10 10 11 12 12 12 12 12 12 13 13 12 11 11 11 11 11 11 11 11 11 11 10 10 10 10 10 10 10 10 9 9 9 9 8 8 7 6 6 6
10 10 10 10 10 11 10 10 11 11 11 11 11 12 12 12 12 12 12 11 11 11 11 11 10 10 10 11 11 11 11 10 10 10 10 10 10 10 10 9 9 9 9 9 8 7 7 6 6
10 10 10 10 10 10 10 10 10 11 11 11 11 11 11 11 11 11 11 11 11 11 10 10 11 11 10 10 10 10 10 10 10 10 10 10 10 10 10 10 9 9 9 9 8 8 7 6 6
9 10 10 10 10 10 9 10 10 10 11 11 11 11 11 11 11 11 11 11 11 11 11 11 11 11 10 10 10 10 10 10 10 10 10 10 10 10 10 10 9 9 9 8 8 8 7 7 6
9 9 9 9 9 9 9 10 10 10 10 10 10 11 11 10 11 11 11 11 11 10 10 10 10 10 10 10 10 9 9 9 9 9 9 9 9 10 10 10 10 9 9 8 8 8 7 7 7
9 9 9 9 9 8 9 9 9 9 10 10 10 10 10 10 10 10 10 10 10 10 10 9 9 9 9 9 9 9 9 9 9 9 9 9 9 9 9 10 9 9 9 8 8 7 7 7 7
8 9 9 9 9 8 8 9 9 9 9 10 10 9 10 10 10 10 10 10 10 10 9 9 9 9 9 9 9 9 9 8 8 9 9 9 9 9 9 9 9 9 8 8 8 8 7 7 7
8 8 8 9 8 8 8 8 9 9 9 9 9 8 8 9 10 10 10 10 9 9 9 9 9 9 9 9 8 9 9 8 8 8 8 8 8 8 9 9 9 9 8 8 8 8 7 7 7
8 8 8 8 8 7 8 8 8 9 9 8 7 7 7 8 8 9 9 9 9 8 8 8 9 9 8 8 8 8 8 8 8 7 8 7 8 8 8 8 8 8 8 8 7 7 7 7 6
8 8 8 8 7 6 6 7 7 8 8 7 8 7 7 7 7 8 8 8 8 8 8 8 8 8 8 7 7 7 7 7 8 7 7 7 7 7 7 8 8 8 8 7 7 7 6 7 6
8 8 8 8 7 7 6 7 6 7 8 7 8 8 8 8 7 8 8 8 8 8 7 7 7 7 7 7 7 7 7 7 7 7 7 7 7 7 7 7 8 8 7 7 7 6 6 6 6
8 8 8 8 7 7 6 6 6 7 6 7 7 7 7 7 8 8 8 8 8 8 7 7 6 6 6 6 6 6 6 7 6 6 6 7 6 6 6 7 7 7 7 7 6 6 6 5 6
7 7 8 7 7 6 6 6 5 5 6 5 5 6 7 7 6 6 7 7 8 8 7 7 6 6 6 6 6 6 6 6 6 6 6 6 7 6 6 6 6 6 6 6 6 5 5 5 5
7 7 7 7 6 5 5 6 5 5 5 5 4 5 5 5 5 5 6 6 6 7 8 7 6 6 6 6 6 5 5 6 5 5 5 5 6 6 6 6 6 5 5 6 6 5 4 5 5
6 6 6 6 6 5 5 5 4 4 4 4 4 4 4 5 5 5 6 6 6 6 6 6 6 6 6 6 6 6 5 5 4 4 4 5 5 5 5 5 5 5 5 5 5 5 5 5 5
5 4 5 5 5 5 5 4 4 4 4 4 4 5 5 5 5 5 6 6 6 6 6 6 6 6 6 5 5 5 5 4 4 4 4 4 4 5 4 5 3 4 4 3 3 4 4 4 4
4 4 3 3 3 3 3 2 3 3 4 4 4 5 5 5 4 4 4 4 4 5 5 5 5 5 5 5 5 5 5 5 4 4 4 4 4 4 4 4 4 4 4 3 3 2 2 2 3
3 2 2 1 2 2 2 1 1 2 2 3 4 4 4 4 4 4 4 3 3 4 4 4 4 4 5 5 5 4 5 4 4 4 4 4 4 4 4 4 4 4 4 5 4 3 3 3 1
1 1 0 1 1 0 1 1 1 2 2 3 3 3 3 3 3 3 3 3 3 4 3 3 3 3 3 3 3 4 4 4 4 4 3 3 4 4 4 4 4 4 4 4 4 3 3 3 3
0 0 1 0 1 -1 -0 -0 1 2 2 2 2 2 2 2 2 2 2 3 2 2 2 2 2 2 2 2 2 2 2 2 2 2 3 3 3 3 3 3 4 4 4 4 3 3 3 3 3
-0 -1 0 -1 -1 -0 -1 0 0 -0 2 2 2 1 2 1 1 1 1 1 0 0 1 0 0 -0 0 0 1 1 2 2 2 2 2 3 3 3 3 3 3 4 4 4 4 3 3 3 4
-1 0 -1 -1 -2 -1 -1 0 -0 0 1 1 1 1 1 1 0 -0 -1 -1 -1 -2 -0 -0 -1 -1 -1 -1 -0 -0 1 1 1 1 1 2 2 2 3 3 3 3 3 3 3 3 4 4 4
-1 -1 -1 -2 -2 -2 -2 -1 -1 -0 -0 1 1 0 0 -1 -1 -2 -1 -1 -3 -3 -3 -2 -3 -3 -3 -3 -2 -1 -0 0 1 0 1 1 2 2 2 3 3 3 3 3 3 3 2 3 4
-1 -1 -2 -1 -2 -1 -1 -1 -1 -0 1 0 0 0 -0 -0 -1 -1 -1 -3 -2 -2 -1 -2 -3 -3 -3 -3 -3 -3 -2 -1 -0 0 1 1 1 2 2 3 3 3 3 3 3 3 3 2 3
-2 -2 -1 -1 -2 -0 -1 -2 -0 0 0 0 0 -0 -1 -1 -2 -2 -3 -2 -2 -3 -3 -3 -3 -3 -3 -3 -3 -2 -2 -1 -1 -1 -1 0 1 1 2 3 3 3 3 3 3 3 3 2 3
-0 -1 -1 -1 -1 0 -2 -1 -0 0 0 0 -0 -0 -1 -2 -2 -2 -2 -2 -3 -3 -3 -3 -3 -3 -3 -3 -2 -2 -2 -2 -2 -2 -1 -0 0 1 2 2 3 3 3 3 4 3 3 3 3
-0 -1 -0 -1 -2 -2 -1 -1 -1 -0 -0 -0 -0 -1 -2 -2 -2 -3 -3 -3 -4 -4 -4 -3 -3 -3 -3 -2 -3 -3 -2 -2 -2 -1 -1 -1 0 1 2 2 2 3 3 3 3 3 3 3 3
-1 -1 -1 -1 -2 -2 -1 -2 -0 0 -0 -1 -1 -1 -2 -2 -3 -3 -3 -3 -4 -4 -4 -4 -4 -3 -3 -3 -3 -2 -2 -2 -2 -1 -0 -0 0 1 2 2 2 2 2 2 2 2 2 3 3
-1 -2 -2 -2 -3 -2 -1 0 -0 -0 -1 -1 -1 -2 -2 -3 -3 -3 -3 -4 -4 -4 -4 -4 -4 -4 -4 -4 -4 -4 -3 -3 -3 -2 -2 -1 -1 -0 0 0 1 0 1 0 1 1 1 2 3
-2 -1 -2 -2 -2 -4 -3 -1 -1 -1 -1 -2 -2 -3 -3 -3 -4 -3 -4 -4 -4 -5 -5 -5 -5 -5 -5 -5 -6 -5 -5 -5 -4 -4 -4 -3 -3 -2 -2 -2 -1 -1 -0 0 0 0 -0 0 2
Height
3157 3156 3155 3156 3160 3156 3157 3158 3158 3158 3158 3157 3157 3158 3160 3160 3161 3166 3164 3164 3164 3165 3165 3166 3167 3167 3168 3169 3169 3170 3170 3171 3172 3172 3172 3172 3172 3171 3170 3169 3169 3169 3168 3168 3168 3169 3170 3170 3170
3155 3155 3155 3154 3157 3156 3157 3157 3157 3157 3157 3157 3158 3159 3161 3161 3162 3162 3162 3163 3164 3165 3166 3166 3167 3167 3167 3168 3169 3169 3169 3170 3171 3171 3172 3172 3172 3171 3170 3169 3168 3168 3168 3168 3168 3169 3169 3170 3170
3154 3154 3154 3153 3153 3155 3156 3155 3156 3156 3156 3157 3158 3159 3160 3162 3162 3162 3162 3163 3164 3165 3165 3165 3166 3166 3167 3166 3167 3168 3168 3169 3170 3170 3170 3170 3170 3170 3170 3169 3168 3167 3168 3168 3167 3167 3167 3168 3168
3152 3154 3154 3152 3153 3154 3155 3155 3154 3155 3156 3157 3157 3158 3160 3160 3161 3161 3161 3162 3163 3163 3163 3164 3164 3163 3164 3164 3164 3165 3165 3166 3168 3168 3169 3169 3169 3169 3169 3169 3168 3167 3167 3167 3167 3166 3166 3166 3167
3151 3152 3151 3150 3152 3153 3154 3154 3154 3154 3154 3155 3157 3157 3158 3158 3159 3159 3159 3159 3159 3160 3160 3161 3161 3161 3161 3161 3162 3162 3163 3164 3164 3166 3166 3167 3168 3168 3168 3167 3167 3166 3166 3167 3167 3166 3166 3166 3166
3150 3150 3149 3148 3151 3152 3153 3152 3153 3153 3153 3154 3155 3155 3156 3156 3156 3157 3157 3157 3157 3157 3157 3158 3158 3158 3158 3158 3158 3159 3159 3160 3161 3162 3163 3164 3165 3165 3165 3166 3166 3165 3165 3165 3165 3165 3165 3165 3165
3148 3148 3147 3147 3149 3151 3152 3151 3152 3153 3154 3154 3153 3152 3154 3154 3154 3154 3154 3154 3154 3154 3155 3156 3155 3155 3155 3155 3155 3155 3155 3156 3158 3159 3160 3161 3161 3162 3162 3163 3163 3163 3163 3163 3163 3163 3164 3164 3163
3145 3146 3145 3145 3146 3149 3149 3148 3149 3151 3152 3151 3150 3150 3151 3151 3152 3152 3152 3151 3151 3151 3152 3152 3152 3152 3153 3153 3153 3152 3151 3151 3153 3154 3155 3157 3158 3158 3159 3159 3160 3160 3161 3160 3160 3161 3161 3162 3162
3142 3143 3143 3144 3144 3145 3145 3145 3147 3150 3149 3148 3148 3148 3148 3148 3147 3148 3147 3147 3146 3147 3147 3148 3148 3149 3149 3148 3148 3148 3148 3147 3147 3148 3150 3150 3152 3154 3155 3156 3156 3157 3157 3157 3157 3156 3158 3158 3159
3140 3139 3140 3141 3141 3141 3142 3144 3145 3148 3146 3145 3144 3143 3142 3142 3142 3141 3141 3141 3142 3143 3143 3144 3144 3144 3144 3144 3144 3144 3144 3143 3143 3144 3145 3146 3147 3148 3150 3151 3152 3153 3153 3154 3154 3153 3154 3155 3156
3135 3137 3137 3137 3137 3136 3138 3139 3140 3141 3139 3138 3138 3138 3138 3138 3137 3134 3136 3137 3137 3137 3138 3138 3139 3139 3139 3139 3138 3139 3139 3139 3139 3139 3140 3141 3142 3142 3144 3146 3147 3147 3148 3149 3150 3150 3151 3152 3153
3133 3133 3134 3134 3134 3134 3135 3135 3135 3135 3135 3133 3132 3131 3131 3130 3131 3130 3130 3132 3132 3131 3131 3131 3132 3132 3132 3132 3132 3132 3133 3133 3134 3134 3134 3134 3135 3137 3139 3140 3141 3142 3143 3143 3144 3146 3147 3148 3149
3129 3129 3130 3130 3130 3132 3130 3130 3129 3130 3130 3127 3126 3126 3124 3123 3123 3123 3123 3123 3124 3124 3123 3123 3124 3125 3125 3125 3125 3126 3126 3126 3126 3127 3128 3128 3130 3131 3131 3132 3134 3134 3135 3138 3138 3139 3142 3143 3145
3124 3125 3126 3126 3128 3126 3125 3125 3125 3125 3123 3123 3122 3121 3119 3117 3116 3117 3117 3117 3117 3119 3119 3118 3119 3119 3119 3118 3118 3118 3118 3118 3118 3119 3121 3123 3124 3124 3124 3125 3126 3127 3130 3131 3131 3133 3134 3136 3138
3120 3120 3121 3122 3122 3122 3121 3122 3120 3120 3118 3118 3119 3117 3113 3111 3110 3110 3110 3110 3110 3111 3113 3113 3114 3113 3113 3113 3113 3112 3110 3110 3111 3112 3113 3115 3116 3118 3119 3119 3117 3123 3123 3124 3123 3126 3127 3128 3130
3116 3115 3116 3118 3117 3116 3117 3117 3118 3115 3113 3115 3115 3108 3105 3103 3102 3102 3103 3104 3103 3103 3105 3105 3106 3106 3107 3107 3107 3106 3104 3105 3105 3104 3105 3106 3108 3110 3110 3111 3112 3115 3115 3115 3110 3116 3119 3120 3121
3114 3112 3111 3115 3114 3113 3112 3108 3110 3110 3109 3109 3108 3103 3100 3098 3095 3094 3094 3095 3095 3096 3097 3098 3099 3099 3100 3100 3101 3101 3100 3099 3100 3100 3101 3102 3102 3103 3103 3103 3106 3106 3105 3102 3104 3103 3102 3108 3111
3109 3109 3108 3108 3111 3108 3106 3103 3103 3104 3103 3102 3101 3099 3098 3095 3092 3090 3089 3088 3088 3088 3089 3090 3091 3092 3092 3092 3093 3094 3094 3094 3094 3094 3095 3095 3095 3096 3096 3097 3098 3098 3096 3095 3096 3096 3095 3085 3095
3104 3105 3104 3105 3106 3100 3100 3098 3097 3098 3096 3097 3095 3093 3093 3092 3090 3088 3086 3085 3085 3084 3083 3083 3083 3084 3085 3085 3086 3086 3087 3087 3087 3088 3088 3088 3088 3088 3089 3089 3089 3087 3086 3085 3087 3087 3087 3088 3091
3101 3100 3100 3100 3100 3097 3094 3092 3091 3090 3090 3091 3089 3088 3087 3086 3085 3084 3082 3080 3079 3078 3078 3078 3077 3077 3077 3078 3079 3079 3080 3081 3081 3081 3081 3080 3080 3079 3078 3078 3077 3077 3076 3076 3076 3078 3078 3079 3084
3097 3097 3097 3097 3095 3093 3089 3087 3084 3085 3086 3085 3085 3083 3082 3081 3079 3078 3077 3076 3075 3075 3074 3074 3073 3073 3072 3073 3072 3072 3073 3073 3073 3073 3073 3071 3071 3069 3068 3068 3068 3068 3067 3066 3066 3067 3068 3069 3072
3094 3095 3095 3093 3091 3090 3089 3085 3081 3082 3082 3081 3081 3081 3079 3078 3077 3075 3073 3071 3070 3069 3069 3069 3067 3066 3066 3066 3065 3064 3062 3062 3062 3063 3063 3064 3062 3060 3059 3058 3058 3057 3056 3056 3055 3056 3057 3058 3060
3091 3091 3091 3090 3089 3086 3085 3086 3074 3077 3077 3078 3077 3077 3076 3075 3073 3071 3068 3067 3065 3063 3063 3061 3060 3059 3057 3056 3057 3057 3056 3054 3054 3053 3054 3053 3052 3050 3049 3048 3047 3046 3045 3044 3044 3044 3044 3046 3048
3088 3089 3088 3087 3086 3082 3079 3081 3071 3071 3073 3074 3074 3073 3072 3071 3069 3068 3066 3064 3062 3060 3058 3056 3054 3051 3049 3048 3048 3047 3047 3045 3043 3043 3043 3042 3041 3040 3039 3037 3036 3035 3033 3033 3032 3031 3031 3032 3033
3085 3087 3087 3084 3083 3077 3075 3074 3067 3067 3068 3069 3070 3069 3068 3066 3065 3064 3063 3062 3060 3057 3055 3051 3049 3046 3044 3042 3040 3038 3036 3035 3032 3032 3031 3030 3029 3029 3028 3027 3025 3023 3021 3021 3020 3019 3018 3019 3019
3081 3082 3083 3078 3078 3075 3075 3068 3061 3063 3064 3064 3064 3064 3063 3063 3062 3061 3060 3059 3057 3055 3052 3050 3046 3044 3040 3037 3032 3031 3028 3024 3022 3021 3018 3017 3016 3016 3015 3015 3013 3012 3009 3007 3007 3007 3006 3006 3006
3079 3077 3078 3077 3075 3074 3068 3062 3059 3058 3059 3059 3059 3059 3059 3059 3058 3057 3056 3055 3053 3051 3050 3047 3043 3039 3035 3031 3027 3024 3020 3016 3013 3008 3006 3004 3003 3002 3002 3000 2998 2997 2995 2992 2991 2991 2991 2991 2993
3074 3075 3075 3074 3072 3067 3060 3057 3054 3054 3056 3056 3056 3055 3054 3054 3054 3054 3053 3052 3049 3047 3044 3041 3038 3034 3030 3025 3020 3016 3011 3007 3002 2998 2994 2991 2990 2989 2987 2985 2982 2980 2978 2976 2975 2975 2976 2976 2977
3068 3067 3068 3069 3068 3063 3056 3049 3049 3051 3051 3050 3051 3051 3051 3050 3051 3050 3049 3047 3045 3043 3039 3037 3033 3029 3024 3019 3014 3009 3004 2998 2993 2988 2984 2980 2977 2975 2971 2969 2967 2965 2964 2962 2961 2960 2960 2961 2962
3062 3060 3061 3061 3061 3059 3057 3043 3044 3045 3046 3047 3047 3046 3047 3047 3047 3046 3044 3042 3041 3038 3036 3033 3029 3024 3019 3014 3009 3003 2997 2992 2985 2979 2975 2970 2967 2965 2962 2956 2951 2948 2948 2948 2947 2945 2944 2945 2947
Wind_Speed
7 7 8 9 4 1 2 5 6 4 0 5 7 7 5 2 7 2 4 5 8 10 7 9 9 9 11 12 11 11 11 10 9 8 11 14 16 16 15 14 12 11 8 7 7 9 9 9 8
6 7 8 10 4 1 6 5 4 4 4 6 7 6 5 4 2 2 4 2 5 6 6 5 6 8 12 14 15 14 14 13 12 12 11 14 15 16 15 15 14 12 11 8 7 7 8 9 10
7 7 8 6 3 3 6 3 7 2 5 3 1 3 3 3 5 5 5 4 5 5 6 6 7 8 10 14 18 19 17 17 16 15 14 13 15 16 16 15 14 13 12 10 8 7 8 9 10
7 8 9 9 6 1 4 1 3 4 5 3 3 3 3 4 4 4 2 2 4 5 7 9 10 11 12 14 18 21 21 20 19 19 17 16 15 16 16 15 14 14 13 12 10 8 8 9 10
8 10 12 8 4 3 4 6 4 4 5 5 4 3 2 2 3 3 6 7 9 9 9 8 8 9 11 12 16 21 24 23 22 21 20 18 17 16 16 16 14 14 14 12 11 9 8 8 9
10 10 11 9 4 3 5 8 8 4 5 6 8 6 6 6 8 7 9 12 14 12 11 10 10 10 9 9 13 17 23 26 26 24 22 21 20 19 17 16 15 14 13 12 11 11 9 8 9
11 12 14 12 10 6 5 8 12 9 7 9 9 8 11 11 11 13 14 16 16 16 14 13 12 12 13 12 11 15 19 24 28 27 25 24 23 22 20 19 17 16 14 12 13 12 11 10 9
12 13 14 13 10 5 9 11 14 13 11 10 10 7 10 12 15 16 19 19 18 20 19 17 17 16 14 14 16 16 19 22 28 30 29 27 26 26 24 22 20 18 17 14 13 13 13 11 11
13 15 14 11 7 5 9 14 14 12 16 15 13 13 13 12 16 20 21 21 23 22 21 21 18 20 19 17 16 16 17 20 25 31 32 30 29 28 27 26 24 21 20 19 16 16 15 13 12
15 16 12 11 12 12 13 13 16 17 19 19 21 21 20 20 21 23 25 25 25 25 24 24 24 22 22 21 20 19 18 17 22 29 33 32 31 31 30 29 27 26 24 22 23 20 19 17 14
15 16 13 15 18 20 18 17 16 15 17 17 21 25 29 30 30 32 32 30 29 29 28 27 27 27 25 24 25 24 24 24 21 25 31 34 34 33 32 31 31 30 28 27 26 24 23 19 17
16 16 15 15 17 19 18 18 15 15 18 19 20 22 23 27 31 34 36 36 36 36 33 29 28 28 28 28 28 29 31 29 25 24 27 34 37 34 33 33 33 32 32 30 29 29 27 24 21
16 19 18 19 18 17 18 19 19 17 17 19 20 21 25 26 26 27 28 27 28 31 31 27 25 24 25 27 29 31 31 31 30 29 28 28 35 38 38 36 36 36 35 32 33 31 29 29 27
20 21 20 19 18 19 18 18 16 17 20 18 17 20 24 26 26 25 21 23 25 24 29 28 21 22 23 25 26 27 26 26 25 26 26 26 27 36 39 39 40 36 34 38 37 34 32 31 30
17 19 18 19 21 19 20 16 11 13 17 17 16 18 21 24 26 27 24 23 24 24 23 23 23 22 23 24 25 27 24 19 22 24 23 26 26 28 33 38 34 39 44 49 38 39 37 38 33
21 23 18 10 8 15 19 19 18 21 24 23 24 28 29 30 31 30 30 28 24 24 23 23 24 25 24 24 23 24 23 19 20 22 23 25 25 23 25 26 34 47 42 51 45 39 37 41 37
19 15 13 13 16 16 17 19 18 20 24 23 22 27 30 32 32 31 29 28 28 26 24 25 24 25 27 25 24 22 21 20 21 21 22 22 23 23 22 23 22 27 38 37 51 51 48 51 40
12 12 16 17 17 21 23 23 22 20 20 21 22 24 26 28 31 32 33 31 29 29 26 22 24 26 28 26 25 24 26 23 21 21 22 23 24 26 25 25 28 30 33 37 34 40 47 41 43
18 21 24 24 20 22 21 25 24 21 22 19 16 18 18 19 20 23 26 28 27 25 25 24 24 25 28 29 28 27 27 29 28 26 27 27 27 28 29 31 30 28 30 33 31 37 40 41 42
20 22 24 22 9 20 22 29 29 22 11 16 10 14 16 16 17 19 22 24 26 24 24 25 26 27 28 29 30 30 29 31 34 34 34 34 34 34 35 35 34 33 32 31 35 37 40 41 41
19 19 19 19 20 20 21 17 6 7 18 11 14 15 16 16 16 16 19 22 24 25 25 27 28 29 30 31 32 31 32 34 37 38 39 40 41 40 40 37 37 38 38 34 34 36 39 42 43
21 20 16 15 14 7 14 8 14 18 9 15 18 13 10 10 15 19 23 23 25 26 26 28 29 30 32 34 36 36 35 36 38 37 39 41 45 45 43 41 41 43 42 40 38 38 38 39 40
14 8 11 13 14 19 8 9 6 7 13 10 9 14 9 10 15 16 16 19 22 22 27 28 32 33 35 35 33 34 34 38 40 41 43 40 43 43 44 46 47 45 44 43 42 44 42 40 39
9 9 13 17 16 8 10 14 4 8 3 15 14 14 11 10 8 12 17 14 19 12 16 19 26 33 38 39 39 39 42 43 43 43 47 45 44 43 44 46 49 49 45 45 44 45 48 45 42
17 13 4 3 3 5 2 9 18 21 20 16 18 14 12 7 8 11 11 13 14 8 9 14 19 22 19 25 35 40 42 45 43 42 45 43 41 42 44 46 51 50 48 46 46 46 48 49 46
8 16 8 4 3 3 5 8 9 15 21 19 19 18 10 5 2 4 5 9 8 9 13 18 19 23 25 26 24 27 30 33 44 46 41 43 45 43 47 50 50 49 50 49 49 48 48 50 51
10 15 16 15 14 6 11 17 23 25 17 16 17 17 9 7 7 6 10 13 11 12 16 20 24 27 31 29 27 26 28 31 33 35 45 47 46 46 47 50 52 53 50 50 50 50 50 50 52
20 14 6 9 4 6 7 12 17 18 12 11 18 17 10 9 10 10 12 15 16 18 22 24 28 32 32 30 28 29 30 32 33 32 34 37 47 52 53 49 50 49 49 46 46 48 49 49 51
22 23 19 15 10 4 7 10 11 13 16 22 12 11 14 9 12 14 16 16 18 20 22 26 31 35 34 32 29 28 30 30 30 29 29 30 33 36 38 40 41 41 41 41 43 47 47 48 50
25 28 22 18 10 10 11 21 15 20 11 11 13 14 14 14 14 18 18 19 21 22 23 26 29 33 33 29 27 28 27 27 26 24 24 25 26 30 32 34 36 37 39 41 43 45 47 46 48
Wind_Direction
291 291 292 296 297 206 113 67 17 345 351 92 113 147 172 181 152 170 292 271 247 238 241 219 229 250 252 249 246 245 240 238 257 290 314 329 337 343 343 348 349 342 327 299 261 241 235 239 246
280 274 279 284 260 214 123 36 14 330 150 126 110 116 127 142 186 107 94 182 206 233 240 232 247 263 266 260 256 255 254 250 253 266 286 308 325 335 338 342 346 346 342 331 307 275 255 253 250
279 270 272 277 258 204 141 1 10 22 154 152 113 80 77 89 70 74 86 165 215 245 257 265 282 286 277 270 261 254 255 258 259 262 270 285 306 322 330 333 340 342 341 336 323 300 277 258 258
273 263 260 251 236 177 169 279 11 127 175 153 124 98 79 51 36 27 32 334 294 277 280 285 286 285 281 267 261 256 252 253 256 261 264 269 284 302 317 323 329 335 335 335 326 315 299 285 273
269 262 256 258 252 194 209 208 234 190 192 168 172 167 180 346 326 298 304 297 291 286 295 302 312 306 290 279 260 254 252 252 254 257 261 263 268 281 299 308 314 323 327 327 322 312 304 295 291
260 257 256 266 277 234 213 213 220 220 203 204 214 223 226 236 248 257 281 281 279 277 280 292 309 316 313 298 274 263 256 252 251 253 256 259 261 268 277 289 296 304 311 317 316 310 305 299 297
257 256 261 269 275 268 238 228 231 235 236 237 243 230 231 228 237 244 258 266 271 280 279 285 296 307 309 303 288 268 264 258 253 253 254 256 257 259 264 272 279 284 289 299 306 309 305 298 289
249 254 260 269 270 258 214 224 234 237 248 251 253 246 240 238 231 243 259 270 274 282 284 285 293 307 303 295 294 288 269 258 250 249 251 253 254 255 257 261 266 271 278 278 283 293 295 292 286
249 251 259 272 278 252 230 228 228 236 247 257 282 279 268 259 256 254 250 255 264 275 280 283 293 301 302 300 299 295 284 268 253 248 247 246 250 253 256 258 262 263 266 269 266 268 274 276 274
249 252 263 260 260 250 242 242 245 255 256 256 257 262 267 266 261 258 255 252 258 269 278 283 288 289 292 294 292 289 283 280 272 255 249 250 250 250 253 255 258 259 259 262 262 259 261 263 266
258 260 256 257 264 268 269 275 282 277 270 269 256 250 252 256 259 263 264 267 268 268 274 278 280 285 288 287 286 287 283 279 272 266 258 251 250 251 251 253 255 256 257 258 262 261 257 260 262
266 272 268 266 267 276 290 287 284 270 280 275 278 274 264 256 257 261 262 265 266 268 269 273 277 278 279 280 281 283 284 284 279 264 260 256 250 249 252 253 255 257 259 259 258 260 262 261 257
271 270 270 273 275 282 282 287 288 291 280 278 279 273 268 270 271 272 278 275 270 268 266 262 265 270 274 277 280 282 280 281 275 270 263 260 256 252 245 246 249 252 252 257 259 260 259 259 257
276 274 275 277 291 289 285 283 289 280 279 271 268 271 275 277 275 275 274 271 268 266 264 262 269 274 275 276 281 287 285 273 267 263 263 262 264 255 250 247 247 246 257 257 256 258 258 256 257
277 276 281 287 288 281 279 287 267 253 256 262 273 283 270 269 272 271 272 267 261 262 261 260 263 268 272 275 281 284 277 266 263 260 260 262 261 262 261 256 250 255 247 256 249 251 252 257 253
281 286 292 251 254 274 278 271 259 260 262 264 269 280 283 281 280 277 271 270 267 263 260 260 264 262 263 268 273 281 280 266 259 258 254 255 259 264 269 279 261 255 258 259 247 247 248 255 255
283 276 277 266 270 277 282 268 259 259 271 283 281 274 278 283 289 291 290 286 277 275 274 267 267 265 258 264 269 279 282 277 264 259 258 261 262 263 270 281 280 282 273 272 259 241 246 237 246
285 288 280 279 287 284 283 275 277 280 280 281 285 282 280 282 284 288 291 295 301 293 287 289 278 271 260 260 267 271 275 277 276 265 264 266 268 273 275 279 280 279 274 271 270 260 271 256 233
268 274 277 287 298 290 288 289 289 291 288 292 292 292 293 296 291 291 291 292 295 295 289 290 285 277 269 266 265 265 268 275 273 269 267 267 267 270 274 280 286 290 279 271 260 260 261 261 249
271 274 279 291 291 292 298 295 299 291 286 302 290 310 309 308 298 290 289 287 286 284 280 276 272 271 268 268 268 268 268 270 272 271 267 269 271 275 280 282 289 290 291 278 270 264 263 261 258
268 269 279 285 305 292 300 305 256 207 324 312 312 321 319 313 312 313 315 305 295 287 283 281 277 274 271 267 262 266 272 276 272 272 274 274 276 277 278 279 281 290 286 279 273 266 262 261 259
269 278 281 290 309 294 312 298 236 279 277 305 311 324 309 312 314 314 313 311 305 300 294 286 280 276 275 274 270 264 263 269 272 267 265 267 271 274 276 277 277 284 282 280 270 268 266 263 260
276 268 282 287 293 298 273 258 260 205 258 313 305 317 288 295 300 304 311 315 327 304 303 303 295 286 282 275 270 266 265 266 269 270 269 266 266 268 270 274 278 278 279 278 275 271 266 264 262
254 261 282 283 278 264 247 229 253 219 293 317 299 298 276 303 330 344 336 329 330 335 325 312 300 291 275 274 277 275 274 270 268 269 272 268 264 266 268 271 275 277 277 276 273 269 268 265 263
254 258 285 265 206 266 278 238 252 281 297 310 300 293 287 291 322 329 326 311 301 326 333 343 342 354 324 290 280 271 268 269 266 267 268 266 269 267 266 268 271 276 276 274 271 267 264 263 263
247 240 208 252 220 282 236 250 263 280 294 300 298 295 267 285 303 343 326 305 294 316 332 336 341 331 327 314 307 297 290 282 276 263 265 266 268 268 266 268 272 273 273 271 269 265 262 260 259
252 245 254 250 266 275 253 260 269 282 286 295 294 294 242 243 244 282 307 291 299 312 319 324 330 327 324 316 309 298 292 289 282 281 268 265 269 270 272 273 276 276 272 269 267 264 261 258 259
245 255 228 227 248 246 241 254 254 277 283 291 303 294 247 250 257 278 298 292 290 304 318 324 329 329 326 318 311 307 304 300 296 287 279 275 269 270 271 273 274 273 273 270 267 264 260 256 256
244 239 234 251 238 263 274 260 275 275 282 299 277 242 254 263 275 276 286 289 290 303 312 320 324 328 326 323 323 320 316 311 305 300 293 288 284 282 282 279 275 273 269 266 265 264 260 256 254
246 247 247 240 238 233 268 266 264 281 283 282 254 246 251 260 276 267 278 279 286 296 306 315 323 326 325 325 329 331 331 327 324 322 318 313 305 295 290 290 289 285 277 268 263 261 261 257 254